Regional Weather Roundup
Issued by NWS

Home | Current Version | Previous Version | Text Only | Print | Product List | Glossary On
Versions: 1 2 3 4 5 6 7 8 9 10 11 12 13 14 15 16 17 18 19 20 21 22 23 24 25 26 27 28 29 30 31 32 33 34 35 36 37 38 39 40 41 42 43 44 45 46 47 48 49 50
000
ASUS43 KBIS 261102
RWRND

NORTH DAKOTA REGIONAL WEATHER ROUNDUP
NATIONAL WEATHER SERVICE BISMARCK ND
600 AM CDT WED APR 26 2017

NOTE: "FAIR" INDICATES FEW OR NO CLOUDS BELOW 12,000 FEET WITH NO
SIGNIFICANT WEATHER AND/OR OBSTRUCTIONS TO VISIBILITY.


NDZ001>003-009>011-017-261200-
NORTHWEST NORTH DAKOTA

CITY           SKY/WX    TMP DP  RH WIND       PRES   REMARKS
WILLISTON      FAIR      24  19  81 N6        29.96F WCI  17
MINOT          FAIR      27  20  75 NW9       29.93F WCI  18
MINOT AFB      CLOUDY    27  20  75 N9        29.93F WCI  17
$$

NDZ018>021-031>035-040>046-261200-
SOUTHWEST NORTH DAKOTA

CITY           SKY/WX    TMP DP  RH WIND       PRES   REMARKS
BISMARCK       FAIR      32  23  69 N13       29.88R
DICKINSON      CLOUDY    30  23  75 N6        29.87F
GARRISON         N/A     27  21  78 N6        29.91S
HETTINGER ARPT CLOUDY    30  25  81 N9        29.88S
$$

NDZ004>008-012>016-024-026-027-054-261200-
NORTHEAST NORTH DAKOTA

CITY           SKY/WX    TMP DP  RH WIND       PRES   REMARKS
GRAND FORKS    CLOUDY    32  25  75 N21       29.83F WCI  20
GRND FRKS AFB  CLOUDY    30  24  79 NE20G26   29.83F WCI  17
DEVILS LAKE    CLOUDY    28  23  81 NE17      29.87F WCI  16
$$

NDZ022-023-025-028>030-036>039-047>053-261200-
SOUTHEAST NORTH DAKOTA

CITY           SKY/WX    TMP DP  RH WIND       PRES   REMARKS
FARGO          LGT SNOW  30  28  92 N20       29.74F FOG     WCI  17
JAMESTOWN      CLOUDY    29  25  85 N17G25    29.79F WCI  17
$$





USA.gov is the U.S. government's official web portal to all federal, state and local government web resources and services.